Dewpoint
-5 -3 -5 -5 -3 -1 -3 -4 -5 -6 -5 -4 -5 -5 -3 -2 2 -1 -0 -0 0 0 2 1 2 2 3 1 1 2 2 2 3 2 2 3 2 3 5 5 6 8
-5 -6 -2 -5 -6 -5 -6 -7 -6 -6 -6 -6 -5 -4 -3 -1 -3 -1 -2 -2 -1 -1 -0 1 1 2 1 2 2 2 1 1 1 2 1 1 0 1 2 4 5 5
-8 -8 -9 -9 -9 -8 -8 -7 -6 -6 -6 -5 -4 -3 -4 -3 -4 -3 -3 -2 -1 -1 -1 1 1 1 3 3 2 1 1 1 2 1 3 1 0 0 1 1 2 3
-10 -9 -10 -9 -9 -9 -8 -7 -7 -7 -7 -7 -6 -5 -5 -4 -2 -2 -2 1 -1 -1 -1 -0 0 0 1 1 3 2 1 1 1 1 1 3 4 2 2 2 6 5
-10 -10 -9 -9 -9 -8 -8 -9 -9 -8 -7 -7 -6 -5 -2 -2 -2 -2 -1 -0 -0 0 3 1 1 1 1 1 1 1 0 0 -0 -0 0 1 2 4 3 5 6 5
-10 -9 -9 -9 -9 -9 -9 -9 -9 -7 -6 -6 -5 -1 -1 -1 -1 -1 -0 0 1 1 1 4 3 3 4 3 3 2 1 0 -0 -1 -1 -1 -1 0 3 3 4 4
-11 -10 -10 -9 -9 -9 -9 -8 -7 -5 -5 -5 -2 -2 -2 -2 -1 -0 0 1 1 2 2 2 2 3 3 3 4 4 3 2 1 0 0 0 1 0 0 2 3 3
-11 -10 -10 -9 -9 -8 -8 -8 -6 -6 -5 -3 -3 -3 -1 -1 -1 0 1 1 2 2 2 3 3 3 3 4 4 5 4 4 3 3 2 1 1 0 1 3 3 3
-10 -10 -9 -9 -9 -9 -8 -7 -6 -5 -3 -4 -3 -3 -1 -1 0 0 1 1 2 3 3 3 4 4 4 5 7 7 6 6 5 4 3 3 2 2 2 3 3 4
-10 -9 -9 -9 -8 -8 -8 -7 -7 -6 -4 -4 -3 -1 -1 -0 0 0 1 1 2 2 3 3 4 4 5 7 7 7 7 7 7 7 6 6 4 4 4 4 3 3
-9 -9 -9 -9 -9 -9 -9 -8 -6 -5 -4 -2 -1 -1 -1 -0 0 1 1 1 2 2 3 3 4 4 5 5 5 6 6 8 8 8 8 7 6 5 8 5 4 4
-9 -9 -10 -10 -9 -9 -8 -7 -5 -5 -4 -2 -1 -2 -1 -0 0 1 2 1 2 2 3 4 4 4 5 5 5 5 6 8 8 8 8 8 8 7 6 6 5 5
-10 -10 -10 -9 -9 -9 -7 -5 -5 -4 -3 -2 -1 -1 -1 -0 1 0 1 1 2 3 4 4 5 5 5 5 5 6 8 9 9 8 8 8 8 8 7 7 6 6
-10 -9 -9 -9 -8 -6 -5 -5 -4 -3 -2 -2 -1 -1 -0 0 1 0 0 1 2 2 3 4 5 5 5 7 8 8 9 9 10 10 9 9 9 9 8 8 7 7
-10 -9 -9 -8 -7 -6 -5 -4 -3 -3 -3 -2 -1 -0 0 0 0 0 0 1 1 2 3 4 5 5 6 7 8 9 9 10 10 10 11 11 10 10 9 9 8 8
-9 -9 -8 -7 -7 -6 -5 -4 -4 -3 -2 -2 -2 -1 -1 -0 -0 0 1 1 1 2 3 3 4 5 9 14 16 12 12 12 11 11 12 11 11 11 11 10 10 9
-9 -9 -8 -7 -6 -5 -5 -4 -3 -3 -2 -2 -3 -2 -2 -1 -1 -0 0 1 1 2 3 3 4 6 14 17 19 20 18 17 16 15 13 13 12 12 12 11 11 11
-9 -8 -7 -6 -5 -5 -5 -3 -3 -3 -3 -3 -3 -3 -2 -1 -1 -1 -0 0 1 2 3 4 4 11 16 18 20 21 21 19 20 19 18 16 14 13 13 13 12 12
-8 -8 -7 -5 -5 -4 -4 -4 -4 -4 -4 -5 -4 -3 -2 -2 -1 -1 -1 -0 1 2 2 4 4 12 17 19 20 22 23 22 21 21 21 20 18 16 14 14 14 13
-8 -6 -6 -5 -5 -5 -5 -5 -5 -6 -5 -4 -3 -3 -2 -2 -2 -1 -1 -0 1 2 3 3 4 11 17 19 21 22 23 23 22 22 22 22 21 19 17 16 15 14
-8 -6 -6 -6 -6 -6 -6 -6 -6 -6 -5 -4 -4 -3 -3 -3 -2 -1 0 1 1 2 3 3 4 14 18 20 21 23 24 24 23 23 23 23 23 22 21 19 17 16
-7 -7 -7 -7 -6 -7 -7 -7 -6 -6 -6 -5 -4 -3 -2 -1 -1 0 -0 -0 1 2 3 4 5 15 18 20 21 23 24 23 24 24 24 23 23 23 23 21 20 18
-7 -7 -8 -8 -8 -8 -8 -7 -6 -7 -6 -5 -5 -4 -4 -3 -2 -2 -1 -0 0 2 3 4 6 12 18 20 22 24 24 23 23 23 24 24 23 23 23 23 22 21
-7 -7 -9 -9 -8 -9 -8 -7 -7 -7 -6 -5 -5 -5 -5 -3 -3 -2 -1 0 1 2 4 5 7 12 18 21 22 23 23 22 22 22 23 22 23 23 24 24 24 24
-7 -8 -8 -8 -9 -8 -8 -8 -8 -7 -6 -5 -5 -4 -3 -2 -1 -1 -0 1 2 3 8 8 9 12 17 20 21 22 22 21 21 21 22 22 22 23 23 23 23 24
-7 -7 -7 -8 -7 -8 -8 -9 -8 -7 -6 -6 -5 -4 -3 -2 -1 -0 -0 1 2 4 5 7 8 11 14 19 19 20 21 20 20 20 21 21 21 21 22 22 23 23